STARLINK-1504, 45746

Orbit data source: Space-Track

STARLINK-1504, 45746 is a payload satellite owned by SpaceX/Seattle (US) in LEO that was launched on Sat, 13 Jun 2020 UTC via an FALCON 9 launch vehicle from the Air Force Eastern Test Range (AFETR). Payload-class satellites include a variety of spacecraft equipped with specific instruments for various scientific and technological missions. These include communications satellites like Starlink; space stations such as the ISS; scientific satellites like the Hubble; Earth observation satellites from companies like Planet Labs, Umbra, and HawkEye 360; GPS; miniature CubeSats for education and research; and military/defense satellites.

Loading next visibility...
Identifier
45746, 2020-038S
Orbit
LEO
Last TLE update
10 hours ago
Origin
Manufacturer
SpaceX/Seattle
Mission
Partially operational Commercial Communications
Bus & Motor
STARLINK, Unknown motor
Mass
260 kg wet, ~248 kg dry
Launch date (UTC)
2020-06-13 (5 years ago)
Launch vehicle
FALCON 9
Launch site
Air Force Eastern Test Range (AFETR)
Object type
Payload
Rocket body
Debris
Shape & HBR
Box + 1 Pan, 8.86 m
Radar Cross Section
13.562 m², Large (>1 m²)

Expand to show TLE details & history

TLE from 10 hours ago
0 STARLINK-1504
1 45746U 20038S   25187.49298278  .00041773  00000-0  14335-2 0  9991
2 45746  53.0318 228.2576 0000895 128.1934 231.9145 15.29766451279559
Epoch: 2025-07-06T11:49Z
TLE epoch observation values (Epoch: 2025-07-06T11:49:53.712Z)
Latitude
-0.00005°
Longitude
126.06787°
Altitude
477.774 km
Speed
7.628 km/s
True Right ascension
15h 13m 01s
True Declination
0° 00' 00"
Sunlit
Object was in full shadow at epoch
Visualization orbit readout
Latitude
12.89252°
Longitude
-65.76125°
Altitude
476.026 km
Speed
7.63 km/s
Apparent Right ascension
00h 34m 47s
Apparent Declination
-14° 43' 60"
Sunlit
Object is in daylight
Visualization observer readout
Local Sidereal Time
09:57:11
Azimuth
294.863° NW
Elevation
-47.423°
Doppler factor
1
Orbital elements
Apogee altitude
477.4 km
Perigee altitude
476.173 km
Semi-major axis
6,854.924 km
Eccentricity
0.00009
Inclination
53.0318°
RAAN
228.2576°
Arg. of periapsis
128.1934°
True anomaly
Unknown
Mean anomaly
231.9145°
Eccentric anomaly
Unknown
Mean motion
3.82419 °/min
Orbital period
94.14 mins
BSTAR
0.0014335
Loading maneuver chart data...
Loading SW <> Apogee altitude chart data...

STARLINK-1504 Visibility forecast

Observer location: undefined°, undefined°

Span
Click to sort rows by Start time (UTC) header in descending order
Start Az.
Max El. time (UTC)
Max El. Az.
Max El.
End time (UTC)
End Az.
6 mins2025-07-07 05:15:07.943Z216.618° SW2025-07-07 05:18:07.943Z130.049° SE41.864°2025-07-07 05:21:07.943Z57.217° ENE
4 mins2025-07-07 06:55:07.943Z307.824° NW2025-07-07 06:56:07.943Z331.042° NNW20.501°2025-07-07 06:59:07.943Z27.043° NE
5 mins2025-07-07 11:51:07.943Z325.194° NNW2025-07-07 11:53:07.943Z31.732° NE39.6°2025-07-07 11:56:07.943Z113.238° SE
|